This is the latest recevied weather packets stored in our database for station/object 4S6DRJ-13. If no packets are shown the sender has not sent any weather packets the latest 10 day(s).
| Time | Temp. | Humidity | Pressure | Rain* | Wind** | Luminosity | Snow |
|---|---|---|---|---|---|---|---|
| 1787852921 | 27.78° C | 87% | 1010.8 hPa | 0 mm | 2.24 m/s, 217° | 0 W/m² | - |
| 1787852860 | 27.78° C | 87% | 1010.9 hPa | 0 mm | 1.34 m/s, 152° | 0 W/m² | - |
| 1787852799 | 27.78° C | 87% | 1010.8 hPa | 0 mm | 1.34 m/s, 234° | 0 W/m² | - |
| 1787852738 | 27.78° C | 87% | 1010.9 hPa | 0 mm | 0.45 m/s, 214° | 0 W/m² | - |
| 1787852677 | 27.78° C | 87% | 1011 hPa | 0 mm | 1.79 m/s, 252° | 0 W/m² | - |
| 1787852616 | 27.78° C | 87% | 1010.8 hPa | 0 mm | 1.34 m/s, 207° | 0 W/m² | - |
| 1787852555 | 27.78° C | 87% | 1010.9 hPa | 0 mm | 0.45 m/s, 233° | 0 W/m² | - |
| 1787852494 | 27.78° C | 87% | 1010.9 hPa | 0 mm | 0 m/s | 0 W/m² | - |
| 1787852433 | 27.78° C | 87% | 1010.9 hPa | 0 mm | 0.89 m/s, 240° | 0 W/m² | - |
| 1787852372 | 27.78° C | 87% | 1010.8 hPa | 0 mm | 0.89 m/s, 228° | 0 W/m² | - |
| 1787852311 | 27.78° C | 87% | 1010.8 hPa | 0 mm | 0.89 m/s, 214° | 0 W/m² | - |
| 1787852250 | 27.78° C | 87% | 1010.8 hPa | 0 mm | 0 m/s | 0 W/m² | - |
| 1787852189 | 27.78° C | 87% | 1010.8 hPa | 0 mm | 0.45 m/s, 228° | 0 W/m² | - |
| 1787852129 | 27.78° C | 87% | 1010.9 hPa | 0 mm | 0.45 m/s, 203° | 0 W/m² | - |
| 1787852067 | 27.78° C | 87% | 1010.9 hPa | 0 mm | 0.89 m/s, 197° | 0 W/m² | - |
| 1787852005 | 27.78° C | 87% | 1011 hPa | 0 mm | 0.45 m/s, 266° | 0 W/m² | - |
| 1787851945 | 27.78° C | 87% | 1011 hPa | 0 mm | 1.34 m/s, 271° | 0 W/m² | - |
| 1787851883 | 27.78° C | 87% | 1011 hPa | 0 mm | 0.45 m/s, 247° | 0 W/m² | - |
| 1787851822 | 27.78° C | 87% | 1010.8 hPa | 0 mm | 0.45 m/s, 244° | 0 W/m² | - |
| 1787851761 | 27.78° C | 87% | 1011 hPa | 0 mm | 0.45 m/s, 186° | 0 W/m² | - |
| 1787851700 | 27.78° C | 87% | 1010.9 hPa | 0 mm | 0.89 m/s, 232° | 0 W/m² | - |
| 1787851639 | 27.78° C | 87% | 1010.8 hPa | 0 mm | 0.45 m/s, 213° | 0 W/m² | - |
| 1787851578 | 27.78° C | 87% | 1010.8 hPa | 0 mm | 0 m/s | 0 W/m² | - |
| 1787851517 | 27.78° C | 87% | 1010.9 hPa | 0 mm | 0 m/s | 0 W/m² | - |
| 1787851456 | 27.78° C | 87% | 1010.9 hPa | 0 mm | 0.45 m/s, 229° | 0 W/m² | - |
* Rain latest hour (hover to see other rain measurements)
** Current wind speed in m/s (hover to see current wind gust speed)